Tracking 20621 objects as of 30-Mar-2020
HD Live streaming from Space Station
objects crossing your sky now

COSMOS 1437

Track COSMOS 1437 now!
10-day predictions
COSMOS 1437 is classified as:


NORAD ID: 13770
Int'l Code: 1983-003A
Perigee: 383.2 km
Apogee: 386.2 km
Inclination: 81.2 °
Period: 92.1 minutes
Semi major axis: 6755 km
RCS: 7.8902 m2 (large)
Launch date: January 20, 1983
Source: Commonwealth of Independent States (former USSR) (CIS)
Launch site: PLESETSK MISSILE AND SPACE COMPLEX (PKMTR)
aabbcc
Your satellite tracking list
Your tracking list is empty




NASA's NSSDC Master Catalog

Two Line Element Set (TLE):
1 13770U 83003A   20089.76660596 +.00006928 +00000-0 +74573-4 0  9991
2 13770 081.1585 328.8206 0002214 207.1421 152.9718 15.63501212044471
Source of the keplerian elements: AFSPC